Snowfall_Accumulation
4.7 5.1 5.3 5.6 5.5 5.2 4.6 4.1 3.8 3.6 3.7 3.7 3.9 3.9 4.0 4.1 4.1 3.9 3.6 3.6 3.4 3.5 3.5 3.5 3.5 3.5 3.7 3.9 4.2 4.5 4.8 5.0 5.1 5.3 5.7 6.3 6.6 7.1 7.6 8.3 9.5 9.7 9.7 10.0 10.1 11.4 12.0 12.1 11.0 10.5 10.0 11.5 11.1 10.5 9.9 9.5 9.1 9.8 10.1 10.9 12.1 10.8 12.2 16.4 17.5 12.6 5.6 2.9 2.8 2.9 2.5 2.3 3.8 3.4 4.9 4.8 4.0 3.2 2.7 2.9 3.0 3.3 3.2 3.2 3.2
3.8 3.8 4.1 4.2 4.8 5.0 5.0 4.7 4.4 4.0 3.9 3.6 3.7 3.5 3.4 3.3 3.4 3.4 3.6 3.7 3.8 4.3 4.3 5.1 4.2 4.4 4.6 4.6 4.7 4.8 5.0 5.2 5.4 5.8 6.4 7.1 7.5 8.0 9.2 9.7 10.3 10.0 9.4 9.9 9.4 9.6 10.4 11.8 10.9 10.2 9.5 10.8 10.2 10.3 10.0 10.3 10.1 10.6 9.7 10.1 11.4 10.9 9.3 14.2 16.1 13.7 10.9 4.1 2.9 2.1 2.3 1.9 3.9 2.7 4.6 4.7 5.1 3.8 3.8 3.4 2.7 2.8 3.1 3.0 3.2
3.9 3.6 3.6 3.9 4.1 4.2 4.4 4.7 4.7 4.7 4.8 4.7 4.4 4.2 4.0 3.6 3.4 3.7 3.6 3.6 3.7 3.9 4.5 4.9 5.0 5.3 5.7 6.1 6.2 6.4 6.4 6.6 6.8 7.5 8.3 9.1 9.6 9.4 9.1 9.6 10.0 10.2 9.8 9.4 9.1 9.7 9.9 10.2 10.2 9.6 9.2 10.5 9.8 9.7 9.2 9.9 9.8 11.2 10.8 9.2 10.1 9.0 8.4 9.5 13.8 15.5 11.5 7.3 3.4 2.8 2.4 2.3 2.8 3.6 3.3 3.5 3.7 3.9 4.9 4.3 3.8 3.2 2.9 2.6 3.0
4.3 4.2 4.6 4.3 4.0 4.1 4.3 4.4 4.5 4.6 4.8 5.2 4.8 5.0 4.8 4.7 4.6 5.1 5.1 5.0 5.1 4.8 4.6 4.8 4.7 4.9 5.1 5.3 5.6 6.1 6.7 7.1 7.5 8.2 9.1 9.6 9.6 9.3 9.0 9.2 9.6 10.1 10.2 9.9 9.7 9.6 9.8 10.2 9.2 8.3 8.8 10.2 9.5 9.2 8.7 9.2 9.8 10.5 10.4 9.2 9.0 9.2 8.3 8.8 10.2 13.6 12.5 11.0 5.6 3.8 2.9 2.9 2.7 2.1 2.4 3.0 4.1 5.3 5.5 5.0 4.0 4.2 3.4 2.9 3.2
5.5 5.5 5.3 5.4 5.2 5.1 5.1 4.6 4.6 4.6 5.0 4.8 5.0 5.1 5.2 5.3 5.3 5.7 5.6 5.4 5.2 5.1 5.2 5.2 5.7 5.7 6.5 6.8 7.2 7.6 8.5 9.0 9.6 9.8 9.7 9.8 9.8 9.7 9.4 9.1 8.9 8.9 9.0 9.3 9.4 9.7 10.0 9.9 9.6 9.4 9.4 10.2 9.6 10.0 9.2 9.8 9.9 10.0 10.4 9.4 9.2 8.4 8.1 8.2 9.5 9.8 12.7 12.7 8.5 4.5 3.1 2.8 2.5 2.5 2.4 3.7 4.4 5.2 5.9 6.4 6.2 5.5 4.6 3.6 3.3
5.6 5.9 5.9 6.1 6.2 6.0 6.2 6.1 6.0 5.6 5.3 5.2 5.2 4.8 4.5 4.7 4.8 4.9 5.1 5.7 5.7 5.9 6.2 6.2 6.7 7.2 7.4 7.8 8.1 8.7 9.3 10.1 10.3 10.4 10.1 9.8 9.2 8.8 8.8 8.8 8.8 8.8 8.7 8.6 8.7 9.1 9.9 9.9 9.4 9.1 10.2 11.3 10.8 9.5 9.4 10.6 11.7 12.4 12.2 11.2 10.2 9.9 10.0 9.7 8.8 9.8 11.0 10.8 8.7 7.5 4.4 4.3 3.8 3.4 3.0 3.3 4.5 5.6 6.4 6.4 6.2 6.2 6.7 6.5 5.2
4.5 4.7 5.1 5.7 5.9 6.3 6.6 6.7 6.5 6.4 6.4 6.3 6.2 6.1 5.9 5.8 5.6 5.7 5.8 6.1 6.2 6.2 6.3 6.8 7.0 7.8 8.1 8.5 9.4 9.8 9.9 10.1 10.6 10.7 10.3 9.9 9.4 9.2 8.9 8.7 8.7 8.6 8.6 8.6 8.7 8.5 8.5 9.0 9.1 9.3 10.4 10.7 11.6 11.7 11.6 11.9 12.4 12.9 12.5 12.7 11.9 12.8 13.8 13.0 12.2 12.2 12.1 11.5 9.3 7.2 6.2 4.3 4.0 4.8 3.3 2.8 3.4 4.3 6.1 7.2 7.7 6.7 6.4 7.2 7.0
3.7 4.0 4.4 4.7 4.9 5.2 5.2 5.3 5.6 5.9 6.1 6.2 6.4 6.6 6.9 7.2 7.3 7.2 7.2 7.4 7.5 7.5 8.0 8.5 8.5 9.1 9.7 10.1 9.9 9.8 10.0 10.4 11.0 11.7 11.5 11.0 10.3 9.9 9.9 10.1 9.5 9.1 8.3 7.7 7.3 7.8 8.2 8.1 8.2 8.4 9.3 9.9 10.5 10.8 11.1 13.1 13.0 14.5 11.6 13.5 13.4 15.5 16.6 14.9 14.4 14.6 14.2 12.9 11.5 9.9 6.9 6.1 4.7 3.8 3.3 3.7 5.0 5.2 5.1 6.7 8.5 6.9 6.9 6.3 6.1
3.1 3.1 3.4 3.8 4.1 4.3 4.5 4.9 5.1 5.3 5.5 5.8 6.2 6.5 6.9 7.3 7.5 7.6 7.9 8.1 8.4 9.0 9.5 10.1 11.0 11.1 10.5 10.5 10.5 10.3 10.7 10.8 11.7 13.8 15.5 15.3 13.1 12.9 12.0 11.8 11.4 10.7 9.6 8.6 7.9 8.2 8.2 8.2 8.4 8.3 8.0 8.0 8.1 8.7 9.3 10.2 13.2 15.3 13.2 12.7 14.9 15.8 16.2 16.1 16.3 16.6 16.1 14.7 13.5 9.2 8.4 7.7 6.0 5.5 5.9 5.7 6.4 7.0 5.3 4.7 6.0 4.7 5.0 5.6 6.0
2.2 2.5 2.8 3.1 3.3 3.7 4.3 4.5 4.9 5.0 5.7 6.0 6.4 6.9 7.3 7.6 8.0 8.2 8.3 8.9 9.8 10.5 11.3 11.8 12.4 12.2 11.8 11.4 11.3 11.7 12.1 12.1 11.8 13.4 20.1 20.6 18.4 18.1 17.6 16.0 14.6 13.3 12.4 11.2 10.1 9.1 9.1 9.0 8.3 7.4 7.5 7.8 8.3 9.0 9.7 10.8 11.4 13.3 14.7 15.7 17.7 18.9 19.3 19.3 18.6 17.0 17.7 18.7 16.0 12.5 12.8 10.1 7.0 5.9 6.2 5.5 4.7 4.3 4.5 5.2 6.9 5.0 4.8 5.8 5.6
1.8 2.0 2.3 2.6 3.0 3.3 3.7 4.0 4.5 4.7 5.3 5.7 6.3 6.9 7.3 7.7 8.3 8.8 9.5 10.3 11.2 11.5 11.5 11.8 11.6 11.0 10.9 10.7 10.6 10.3 10.4 10.9 11.6 14.8 22.5 26.6 23.8 23.6 21.3 18.2 14.9 14.1 13.7 13.9 13.5 10.8 9.4 8.7 8.7 8.4 8.6 9.0 9.5 9.8 10.4 11.1 11.5 12.3 12.8 13.3 15.4 19.3 23.0 22.2 19.2 16.5 18.0 17.8 13.7 12.8 12.2 10.6 7.2 5.5 6.0 6.1 5.5 6.1 6.4 6.0 6.0 5.9 7.7 10.2 11.6
1.9 2.2 2.4 2.6 2.8 3.1 3.3 3.7 4.3 4.8 5.2 6.1 6.5 6.8 7.0 7.8 8.8 9.3 9.9 10.6 10.6 10.5 10.6 10.3 9.9 10.0 9.3 9.2 9.5 9.6 9.5 10.2 14.2 17.3 22.3 31.1 27.3 26.8 26.5 22.8 19.3 17.1 15.9 15.1 13.6 12.8 11.8 11.1 10.1 9.2 9.0 9.0 9.3 9.6 9.6 9.9 10.7 11.3 12.6 13.5 14.4 15.0 17.2 19.9 22.9 21.5 18.8 18.9 17.5 14.0 12.6 11.3 8.8 7.2 7.3 8.2 8.9 8.5 7.2 7.0 7.2 8.8 10.0 10.4 9.5
2.0 2.3 2.3 2.6 2.9 3.2 3.6 4.1 4.6 5.2 5.7 6.2 6.7 7.6 8.6 9.4 10.2 11.0 11.0 10.8 10.4 10.5 10.1 9.7 9.8 9.4 9.7 10.1 10.0 9.6 11.7 10.5 14.6 18.3 22.7 32.0 31.4 32.4 31.2 27.8 22.9 20.7 18.1 16.4 15.4 14.2 13.2 12.8 12.1 11.0 10.0 9.3 10.2 10.8 11.5 11.7 10.5 11.0 12.0 12.7 14.6 17.8 19.3 20.1 19.9 19.7 21.4 23.5 22.9 19.1 15.1 13.1 14.0 11.0 9.7 11.6 11.4 14.3 10.9 10.6 9.7 9.8 9.6 10.2 8.1
2.3 2.5 2.6 3.0 3.3 3.9 4.4 4.9 5.8 6.3 6.9 7.8 8.6 9.6 10.5 11.1 11.1 11.2 11.0 10.5 10.4 10.1 9.8 9.9 10.0 10.1 10.5 11.2 11.4 10.6 11.1 11.6 15.3 19.1 24.0 32.6 31.6 38.4 32.0 29.4 24.6 20.0 17.1 15.6 14.8 14.4 14.2 14.3 14.1 13.1 11.4 11.5 11.9 12.3 12.3 12.2 11.9 12.2 13.2 14.0 14.5 13.8 15.5 16.6 16.9 17.5 19.7 22.6 24.4 24.1 15.2 13.9 15.8 13.2 12.4 13.0 17.0 18.0 17.0 15.7 12.0 11.5 10.9 9.4 6.1
2.4 2.6 3.1 3.5 3.9 4.5 5.4 5.9 6.8 7.2 7.7 8.4 9.5 10.0 10.8 10.9 11.0 11.2 11.0 11.2 11.2 11.2 10.8 11.3 10.7 10.6 10.6 10.9 12.0 11.8 11.4 12.7 17.1 22.1 26.0 33.2 32.3 33.0 30.2 26.6 22.2 18.7 15.8 14.6 14.2 14.0 13.5 13.1 12.8 12.3 11.9 12.8 12.8 13.5 15.3 15.4 15.0 15.3 14.5 13.1 12.0 11.2 10.7 12.0 13.0 15.3 17.4 17.2 17.7 17.0 15.1 14.4 15.7 16.9 18.7 16.9 19.6 20.3 18.2 15.9 13.0 10.7 9.2 7.3 7.4
2.9 3.2 4.0 4.3 4.9 5.5 6.3 7.2 7.5 8.1 8.9 9.7 10.3 10.7 10.9 10.7 11.4 10.7 11.0 10.9 10.5 10.6 10.6 10.8 11.0 10.3 9.5 9.9 11.4 11.9 11.1 11.7 16.3 22.4 27.9 32.9 33.5 29.2 27.3 24.4 20.1 17.6 16.0 15.6 15.1 14.7 14.4 14.8 14.9 14.6 13.3 12.8 12.3 14.8 15.7 17.4 19.3 18.2 16.5 13.9 12.3 11.3 10.6 8.7 11.1 17.1 15.2 17.8 17.5 18.4 19.6 18.8 25.9 22.7 24.4 24.1 23.3 19.7 14.7 12.7 12.1 13.4 14.5 14.7 13.7
3.7 4.5 5.2 5.6 6.6 6.9 7.6 8.4 9.4 9.8 10.2 10.6 10.6 10.6 10.9 11.0 11.0 11.0 11.9 11.0 11.0 10.9 10.7 10.4 9.6 9.5 9.2 9.4 10.3 9.7 9.9 10.6 13.2 19.6 26.0 29.0 31.1 28.3 26.0 23.3 19.6 16.9 15.2 13.8 14.0 14.1 14.4 14.5 15.1 14.5 13.8 13.4 12.8 16.0 19.8 21.8 23.6 20.7 18.6 16.7 14.3 13.6 12.3 9.7 12.6 19.1 24.7 31.1 34.7 37.9 37.6 38.8 37.5 39.9 39.9 38.3 28.4 27.3 30.4 32.5 26.0 17.2 19.2 20.6 15.6
5.3 6.0 6.6 7.1 8.1 8.7 9.6 10.4 11.1 11.0 10.8 11.1 11.2 11.1 11.2 11.3 11.1 10.5 11.6 11.5 10.8 9.2 8.8 8.5 8.1 8.3 8.6 8.9 9.4 10.0 9.4 9.3 11.3 16.9 22.6 26.5 30.3 30.8 28.2 23.8 20.1 17.5 16.0 14.5 14.2 14.0 12.8 12.5 13.4 14.7 15.6 14.4 14.3 16.6 25.1 25.7 27.6 23.7 21.4 20.3 19.0 17.9 14.2 11.8 11.8 11.0 14.0 19.6 24.4 28.8 31.0 30.2 28.8 28.2 30.4 29.5 32.0 27.7 36.7 43.7 25.5 17.2 19.0 16.9 17.0
6.7 8.0 8.9 9.2 10.0 10.4 10.5 10.9 11.3 11.5 11.8 11.6 11.9 12.4 11.7 11.2 10.1 9.7 9.8 9.4 9.1 8.3 8.3 8.5 7.8 7.6 8.1 8.9 8.8 10.2 10.9 10.5 10.8 13.8 20.2 26.0 28.5 27.8 24.7 22.6 21.1 17.1 15.5 15.5 14.2 14.4 13.6 12.7 13.1 14.1 14.4 13.8 17.2 23.2 29.0 29.2 31.0 25.5 21.8 22.6 22.1 17.8 13.3 12.0 12.9 13.3 13.3 12.6 12.1 12.2 14.6 16.8 18.2 18.0 16.1 16.2 17.9 22.3 23.7 31.4 26.2 24.5 25.9 18.3 15.1
8.2 9.2 10.0 10.7 10.8 10.8 11.0 11.7 11.8 12.0 12.1 11.8 11.4 11.6 10.8 10.5 9.7 9.8 9.2 8.8 9.0 8.5 8.4 8.5 9.0 8.5 8.2 8.8 9.3 10.2 11.4 10.6 10.5 11.3 18.5 24.4 29.7 27.7 25.5 25.6 24.5 20.6 18.6 18.1 18.1 15.2 13.3 13.5 12.9 13.8 15.0 17.6 20.2 27.3 32.2 44.3 39.7 31.4 26.5 26.9 25.8 21.2 14.6 13.6 12.6 12.5 12.6 11.6 10.6 10.2 10.3 10.1 10.8 11.0 11.4 11.2 11.3 13.4 17.5 14.2 16.2 21.8 23.8 20.4 16.4
10.1 10.8 11.0 10.9 10.8 10.8 11.3 11.9 12.6 12.1 11.7 12.2 11.5 10.5 9.6 9.9 9.4 9.2 9.2 8.8 9.4 9.6 9.0 8.6 8.7 8.3 8.3 8.5 9.0 9.7 10.6 11.8 11.3 11.2 15.1 19.8 26.3 30.5 26.9 23.9 22.0 21.5 22.2 21.7 19.6 18.0 14.9 13.1 12.0 10.7 11.0 13.1 17.6 24.3 32.4 40.7 34.4 32.5 36.0 34.4 26.6 19.8 18.8 19.4 16.4 14.8 14.0 13.1 11.4 11.0 10.5 10.2 10.1 9.9 9.9 9.4 9.6 10.9 11.5 12.9 12.5 11.2 13.6 17.2 18.8
11.0 11.6 11.6 11.4 11.4 11.4 11.6 11.7 11.6 11.8 11.1 10.8 10.7 10.0 9.1 9.2 9.4 9.4 9.6 10.7 10.9 10.0 9.1 9.0 9.2 8.8 8.5 9.1 9.9 10.8 10.3 10.4 10.9 9.6 10.7 16.0 22.2 29.7 28.1 24.6 21.2 25.4 27.6 24.1 19.8 16.3 13.5 12.1 11.4 10.2 10.3 12.2 14.4 24.5 37.5 38.3 34.6 31.8 30.0 41.0 41.4 38.5 27.4 23.0 20.5 19.0 17.4 16.0 14.8 14.1 12.9 12.2 11.8 11.0 9.8 9.0 8.3 8.1 9.8 10.8 12.0 11.9 10.7 11.2 13.1
11.7 11.7 11.6 11.3 11.1 11.4 11.3 11.3 11.2 10.8 10.7 10.4 11.0 10.5 9.1 9.2 9.3 10.1 11.6 12.0 11.5 11.1 10.4 10.4 10.9 10.4 9.8 9.8 9.9 10.4 10.3 10.1 9.6 9.9 9.8 12.3 17.3 24.1 27.1 28.2 28.7 26.7 30.2 28.3 21.4 16.4 13.3 12.5 11.1 10.0 11.8 14.7 23.3 32.8 38.3 37.1 28.9 28.1 38.2 37.8 33.0 29.8 29.1 27.8 28.5 29.0 27.5 23.7 19.5 17.7 15.0 12.7 11.8 10.9 9.5 9.2 8.7 8.3 9.2 9.6 9.7 10.5 11.3 11.9 10.3
11.5 11.7 11.0 10.5 10.3 10.1 10.2 10.4 10.3 10.5 11.0 11.0 10.9 10.6 10.1 9.9 10.3 10.7 11.0 12.1 12.6 12.1 10.4 10.6 11.2 11.1 10.9 10.9 11.1 11.0 10.6 10.4 9.7 9.8 10.5 10.5 13.2 22.1 27.8 27.5 29.8 27.9 24.8 21.8 17.5 15.3 14.6 13.1 12.1 12.6 19.1 25.7 34.6 38.1 33.5 28.9 26.8 27.1 29.7 26.8 27.9 29.0 27.9 26.4 25.3 25.2 25.1 24.4 23.1 20.4 17.6 14.3 12.5 11.4 10.1 8.8 8.3 8.1 8.3 9.0 9.5 9.6 11.8 10.9 10.0
11.5 10.9 10.1 9.5 9.5 9.5 10.0 10.4 10.5 10.6 10.7 11.0 11.7 11.4 10.9 10.6 11.6 10.6 11.6 12.5 12.8 12.9 11.2 11.4 12.4 11.9 11.9 12.5 12.7 12.0 11.2 10.7 10.5 10.1 10.2 10.5 11.8 16.5 19.7 21.8 20.5 18.5 19.8 16.8 15.7 15.5 14.7 17.7 21.4 26.7 26.7 27.9 28.1 27.0 24.4 21.9 22.4 19.7 20.4 19.9 19.6 19.9 22.3 23.3 20.9 18.2 19.1 20.1 18.3 15.8 14.4 13.7 12.0 10.4 9.8 9.7 10.0 9.7 10.9 11.5 11.6 11.5 11.2 12.1 11.0
10.9 10.0 9.3 9.0 9.3 9.8 10.3 10.0 10.0 10.1 10.0 9.7 10.3 10.6 11.2 11.5 12.2 11.6 12.4 13.2 12.8 13.5 13.5 13.2 13.2 13.1 13.7 13.8 14.2 13.0 12.1 11.7 10.9 10.4 10.5 10.6 11.5 14.0 16.7 14.5 14.5 14.5 14.7 14.2 12.3 11.9 16.8 22.1 21.5 17.2 16.7 16.3 17.6 17.7 18.5 13.1 11.9 12.9 14.1 15.0 16.2 16.2 16.5 17.7 18.4 16.7 15.6 13.0 12.1 12.5 12.3 11.8 12.0 11.2 10.5 10.0 10.1 10.1 9.5 9.6 9.8 11.6 10.2 9.8 10.5
10.1 9.3 8.8 9.0 9.6 10.1 10.7 10.9 10.9 10.5 10.2 10.2 10.5 10.6 11.0 11.6 12.1 12.5 13.1 14.4 14.1 14.1 14.4 14.8 15.2 15.3 16.2 14.3 13.1 12.5 12.0 11.5 11.0 10.5 10.7 12.5 13.3 13.4 14.6 14.8 13.7 14.0 14.1 14.1 13.2 13.3 12.9 13.8 13.7 13.6 14.2 14.2 15.0 15.4 13.4 11.5 12.1 14.0 14.0 14.2 14.4 14.8 14.4 14.2 14.3 14.8 14.2 12.3 11.4 10.8 10.5 10.7 11.4 12.9 13.9 11.9 11.2 10.1 8.5 8.0 8.4 9.1 9.1 9.3 9.8
10.0 9.3 8.7 9.2 10.2 10.4 11.0 10.8 11.0 10.7 10.4 10.7 11.3 10.6 10.5 10.7 12.1 12.8 14.5 17.3 20.0 18.9 18.1 18.0 19.2 20.7 21.2 16.9 15.2 13.0 12.8 12.6 11.6 13.1 14.1 15.5 16.6 17.3 17.3 16.6 15.6 15.1 15.3 15.2 14.9 14.0 13.9 13.7 14.7 16.6 18.4 19.3 18.4 17.3 15.9 16.5 15.1 13.3 11.5 11.4 12.4 12.3 12.8 13.8 14.8 12.6 12.4 11.3 11.0 11.1 11.4 11.7 13.5 13.1 13.5 13.4 11.1 9.3 8.4 8.9 8.0 8.7 8.2 8.7 11.8
9.8 9.3 9.0 9.6 9.8 9.7 10.2 10.4 10.3 10.4 10.4 10.1 10.7 11.5 11.9 12.3 13.1 12.9 11.4 13.8 18.6 26.0 31.2 28.6 25.7 26.4 24.0 22.3 21.9 19.3 16.1 15.3 14.5 14.2 16.1 18.4 22.3 25.1 24.3 21.4 18.9 18.0 16.2 15.9 16.5 16.2 15.6 15.9 15.5 14.3 13.8 13.7 14.9 15.6 14.7 13.5 12.4 11.7 11.5 11.7 12.1 13.6 14.7 15.4 16.7 16.6 14.5 13.0 13.0 13.4 13.1 12.8 12.3 11.4 10.9 12.7 11.8 11.5 8.8 8.7 7.6 7.7 8.4 7.9 9.5
10.6 9.3 8.9 9.3 9.0 9.8 10.5 10.1 9.7 10.0 10.3 10.4 9.8 10.3 10.7 11.7 13.5 16.6 16.2 12.9 14.7 18.0 27.8 32.7 32.7 32.6 33.3 26.5 23.0 26.6 26.3 20.1 19.0 23.7 25.6 29.1 26.0 25.2 24.5 24.9 22.3 21.4 18.7 16.0 18.1 18.6 17.4 16.5 15.0 14.5 14.1 13.8 14.1 14.9 14.8 14.1 13.7 13.3 12.8 12.5 12.3 12.6 13.5 14.9 14.3 13.6 12.9 13.3 13.1 13.3 12.8 12.5 12.5 12.1 11.5 11.1 9.8 9.7 10.1 9.9 10.0 8.5 10.0 11.0 11.0
12.9 10.9 10.2 9.9 9.5 10.7 10.3 9.6 9.0 9.6 9.6 9.5 9.4 10.0 9.7 9.9 11.0 12.8 13.8 14.2 14.6 18.0 22.4 27.5 29.8 29.6 35.4 36.0 24.6 19.3 18.5 16.9 20.3 21.4 25.2 29.5 33.0 24.4 25.0 25.3 23.6 24.5 23.0 24.4 25.1 22.2 19.7 17.8 16.3 15.2 14.3 14.0 14.2 14.8 14.9 13.8 13.4 13.8 14.0 13.4 13.0 12.8 12.4 12.7 14.4 14.8 15.2 15.4 15.0 14.2 14.0 13.4 12.9 12.2 12.4 10.6 10.8 9.9 9.6 9.8 10.1 11.2 11.3 10.6 10.9
14.8 12.1 10.9 10.3 9.9 9.6 9.6 9.6 9.5 9.7 9.2 9.0 9.4 9.8 9.9 9.6 8.8 9.7 11.7 13.0 13.8 16.7 18.7 21.3 25.6 29.1 27.6 27.8 28.0 25.3 20.3 19.5 18.6 22.9 25.6 31.4 23.2 20.3 22.1 22.8 25.8 26.3 22.1 19.2 20.7 20.2 18.1 17.6 17.0 16.5 15.9 15.6 15.3 15.1 14.6 13.9 13.7 13.9 14.6 15.5 15.0 14.0 13.5 13.2 13.0 13.5 13.1 14.0 15.7 16.3 16.1 16.0 14.5 13.2 12.8 12.1 11.7 11.6 10.9 11.4 12.4 12.0 12.5 12.0 11.3
13.7 12.4 11.2 10.7 10.2 9.3 9.4 9.6 9.5 9.8 10.2 10.2 9.8 9.6 10.3 10.5 11.2 9.5 9.0 9.9 11.5 12.8 13.1 14.7 17.6 19.4 20.5 22.5 25.2 27.4 24.3 22.5 21.5 27.5 27.3 22.3 17.5 17.0 19.9 24.6 25.2 21.4 21.5 20.0 16.7 15.4 14.6 14.4 15.8 16.2 16.2 16.5 15.9 15.5 15.2 14.8 14.4 13.9 14.1 14.6 14.9 14.5 14.3 13.2 12.5 12.7 13.3 14.4 16.0 15.8 15.8 17.1 16.8 15.8 14.1 13.3 13.7 14.3 13.0 11.9 11.0 11.4 11.7 12.7 12.1
12.0 12.5 11.9 11.1 11.1 9.9 9.4 9.5 10.1 9.8 9.9 10.6 10.2 10.4 9.8 10.5 11.3 11.1 10.8 9.1 9.3 10.4 11.1 11.6 12.2 12.5 12.5 13.7 16.0 17.3 18.9 20.6 19.1 16.5 17.8 19.1 24.1 24.7 22.6 20.9 16.8 15.0 16.3 17.5 15.9 14.3 13.0 13.0 13.3 14.0 14.0 13.8 13.9 13.8 13.5 13.3 13.1 12.9 12.8 12.9 13.0 12.9 13.1 12.9 12.5 12.7 13.2 13.9 15.2 15.3 15.5 15.9 16.7 18.6 18.8 17.3 14.7 13.5 13.5 12.7 12.0 13.0 13.8 13.6 13.0
10.4 9.8 9.0 9.2 10.1 10.1 9.8 10.0 10.4 10.6 10.5 10.3 10.2 10.6 10.8 10.5 11.1 12.3 12.6 12.4 12.2 11.9 11.4 11.7 10.7 10.1 11.9 12.3 13.1 13.3 13.6 13.7 14.7 16.0 17.5 20.7 22.3 20.4 18.9 17.6 16.2 12.8 11.6 11.0 11.2 11.4 11.2 11.4 11.5 11.5 11.6 11.7 11.4 11.5 11.5 11.2 11.4 11.3 11.1 10.8 10.3 10.5 11.0 11.8 12.1 12.1 12.4 13.1 13.5 13.7 13.9 14.7 15.0 16.2 17.8 19.0 18.4 18.4 16.5 15.3 14.1 14.7 14.2 13.1 12.5
10.0 9.9 8.7 8.2 8.9 9.5 9.8 9.9 10.3 10.8 11.2 10.9 10.7 11.0 10.7 10.7 11.5 11.3 11.2 11.3 12.3 12.1 11.7 11.6 11.8 11.0 10.5 11.3 11.9 11.6 11.9 12.4 14.1 16.6 20.4 22.2 21.2 20.0 20.0 15.8 12.1 9.7 9.5 9.6 9.6 9.6 9.8 9.9 10.0 9.8 9.8 9.9 10.2 10.3 10.5 10.7 10.9 11.0 10.7 10.3 9.3 8.9 9.3 9.9 10.5 11.1 11.8 12.9 13.4 13.3 13.3 14.0 14.6 15.4 16.3 17.0 17.7 17.5 16.8 15.6 14.7 13.8 13.5 13.5 13.1
10.7 9.9 9.2 8.6 9.1 9.7 9.6 9.7 9.8 10.2 10.8 11.2 11.3 11.2 10.6 10.4 10.5 10.6 10.5 10.6 11.5 11.3 11.7 11.6 11.1 10.8 11.0 10.8 11.2 10.4 10.4 11.6 13.1 14.7 17.2 17.9 15.4 13.1 11.1 9.7 9.6 9.0 8.8 8.9 8.9 8.7 8.5 8.3 8.7 8.5 8.2 8.5 8.8 9.1 9.2 9.3 9.2 8.9 8.6 8.6 8.7 8.9 9.5 10.1 10.6 11.0 11.5 11.7 12.0 12.4 12.8 13.4 13.9 14.3 15.6 16.8 16.5 17.0 17.1 17.0 16.6 15.5 15.3 14.3 14.1
10.0 10.0 9.9 9.9 10.5 10.3 10.1 10.0 9.6 9.8 10.1 10.4 10.7 11.2 10.8 10.3 10.6 10.7 11.1 11.1 11.6 12.3 12.4 11.7 11.4 10.9 11.5 11.1 10.5 11.0 10.5 9.8 9.8 11.0 11.7 12.0 11.2 9.9 8.8 8.9 9.3 9.3 8.6 8.2 8.4 8.5 8.0 7.3 7.5 7.7 7.3 7.3 7.1 6.8 7.0 7.0 7.1 6.9 6.6 6.5 6.8 7.4 8.6 9.2 10.2 10.7 10.9 10.8 11.2 11.9 12.6 12.9 13.5 14.1 14.5 15.1 14.9 15.2 15.5 15.5 16.5 17.2 16.6 16.0 16.3
9.6 9.3 9.4 10.0 10.9 11.0 10.9 10.6 10.0 10.2 10.2 10.4 10.4 10.9 11.0 11.2 11.0 10.9 11.1 11.2 10.9 11.2 11.8 11.9 11.6 11.5 11.5 12.0 12.1 10.9 10.4 10.8 11.3 11.4 11.3 10.5 9.0 8.3 8.6 8.9 8.8 8.2 8.2 8.1 7.9 7.8 7.8 7.4 7.0 7.0 6.9 6.8 6.8 6.8 7.1 6.5 6.3 6.1 5.9 5.9 5.7 5.9 6.4 6.8 7.7 9.0 10.2 10.6 10.8 11.2 11.8 12.1 12.6 13.2 14.0 14.1 13.3 13.2 13.9 14.3 14.5 15.0 16.1 15.9 15.6
11.1 10.4 10.0 10.2 11.1 10.8 10.9 10.7 10.4 10.8 10.6 10.9 10.5 10.8 11.4 11.4 11.3 11.4 11.2 11.1 10.7 10.8 11.2 11.5 11.3 11.1 11.5 12.2 12.6 13.0 12.1 10.9 10.1 9.4 8.9 8.6 8.8 9.1 8.9 8.5 8.2 8.4 8.6 8.2 8.0 8.1 8.0 7.5 7.3 7.1 6.7 6.4 6.6 6.5 6.6 6.6 6.3 6.0 5.8 5.9 5.9 5.9 6.1 6.6 7.0 7.6 8.3 8.9 9.9 10.1 10.8 10.9 11.0 11.7 12.6 13.1 13.0 12.9 13.3 13.2 12.9 13.8 13.8 13.7 13.0
12.3 11.7 11.2 10.8 11.1 11.6 11.0 10.7 10.8 11.0 11.0 11.0 11.2 11.8 12.0 12.0 11.7 11.7 11.5 11.0 10.5 10.2 10.1 10.5 10.8 10.9 11.2 11.7 11.4 13.8 14.1 12.9 10.9 9.5 9.0 8.8 8.6 8.5 8.1 7.9 8.3 8.0 7.8 8.1 8.1 7.9 7.9 7.6 6.9 6.7 6.3 6.2 6.3 6.6 6.4 6.4 6.1 6.1 6.0 5.8 5.7 5.9 5.9 6.1 6.5 6.9 7.3 8.0 8.6 9.1 9.5 10.0 10.3 11.2 11.5 11.1 11.8 12.3 12.0 12.8 13.1 13.1 13.2 13.2 12.8
13.2 13.3 12.8 12.0 11.5 12.0 11.9 11.0 11.0 10.7 10.8 11.3 11.4 12.2 12.6 12.5 11.8 11.8 11.0 10.2 9.8 9.7 10.0 9.7 9.9 10.2 10.1 10.0 10.7 11.9 11.5 10.4 9.6 9.0 8.8 9.0 8.9 8.5 8.3 7.7 7.7 8.4 8.5 8.4 8.6 8.4 7.6 7.1 6.7 6.8 6.7 6.5 6.6 6.4 6.5 6.3 6.4 6.4 6.2 6.0 5.9 5.8 5.9 6.0 6.3 6.6 7.0 7.4 7.7 8.1 8.6 9.6 10.4 10.9 10.8 11.6 11.0 11.0 11.5 11.7 12.0 12.4 13.1 13.3 13.2
13.7 13.9 13.8 13.1 12.6 12.5 12.8 12.0 11.5 11.4 11.1 11.3 11.7 11.9 12.1 12.0 11.5 10.6 9.9 9.6 9.3 9.4 9.5 9.1 9.0 9.0 9.0 8.8 9.2 9.4 9.1 8.8 8.9 8.9 9.3 9.2 8.9 8.2 7.8 7.7 7.7 7.9 8.2 7.9 7.8 7.9 7.8 7.5 7.1 6.8 7.0 6.7 6.9 7.2 7.5 7.1 6.9 6.8 6.6 6.6 6.5 6.4 6.3 6.0 6.2 6.5 6.8 7.1 7.0 7.2 7.9 8.5 9.1 9.5 9.5 9.7 9.9 10.4 10.5 10.6 10.8 11.0 11.5 12.5 12.9
13.4 13.4 13.2 13.1 12.3 11.6 11.3 11.6 11.7 11.4 12.0 12.1 11.9 11.6 11.3 10.9 9.9 9.2 9.1 8.6 8.5 8.7 9.3 9.2 9.2 9.1 8.9 8.5 8.4 8.2 8.2 8.2 8.7 9.0 9.1 8.6 8.0 7.6 7.5 7.3 7.3 7.2 6.9 6.9 6.9 6.9 7.2 7.2 7.1 6.5 6.1 6.1 6.1 6.2 6.2 6.3 6.9 7.6 7.5 7.5 7.1 7.1 7.0 7.0 7.0 7.3 8.0 8.2 7.5 7.4 7.4 7.5 7.7 8.2 8.6 8.5 9.2 9.7 9.3 9.6 10.0 10.3 10.5 11.2 12.1
13.1 13.4 13.5 13.1 11.8 11.6 11.0 10.8 11.5 11.3 11.1 11.1 11.0 10.3 9.7 9.2 9.0 8.8 8.9 9.0 8.9 9.0 9.1 9.0 8.9 9.0 9.0 8.8 8.8 8.9 8.7 8.6 9.0 9.0 8.8 8.4 8.1 7.3 7.0 7.3 7.5 7.1 6.8 6.4 6.5 6.7 6.8 7.0 7.0 6.8 6.1 5.5 5.4 5.5 5.7 5.8 6.3 7.0 7.6 8.6 8.7 8.2 7.6 7.7 7.7 8.1 8.9 9.6 8.7 8.0 7.3 7.4 7.3 7.6 7.9 7.9 8.4 9.2 9.4 9.4 9.8 10.2 10.5 10.8 12.3
12.7 13.1 13.2 13.0 12.3 11.5 11.5 11.5 11.6 11.3 11.0 10.9 10.7 9.9 8.6 8.3 8.8 9.1 9.2 9.3 9.4 9.7 9.4 9.1 9.0 9.1 9.4 9.6 9.4 9.2 9.2 9.2 9.0 8.9 8.7 8.0 7.6 7.0 6.8 7.2 7.2 7.0 6.9 6.8 6.6 6.7 6.8 7.0 7.2 6.9 6.2 5.4 5.0 4.9 5.1 5.4 5.7 6.0 6.5 7.4 8.1 8.1 7.8 8.0 8.1 8.7 8.5 9.0 8.8 8.5 7.9 7.7 7.1 7.4 7.9 8.6 8.6 9.1 9.5 9.1 9.6 10.2 11.3 11.3 11.7
12.3 12.7 12.7 12.5 12.6 12.1 11.8 11.4 11.3 11.3 11.0 10.7 10.6 9.9 9.0 8.8 9.5 9.4 9.5 9.8 9.7 9.7 9.7 9.4 9.4 9.2 9.5 9.8 9.6 9.4 9.4 9.1 8.9 8.7 8.5 8.1 7.6 7.2 6.9 6.8 6.8 6.4 6.1 5.8 6.1 6.3 6.4 6.2 6.2 6.3 6.1 5.5 5.1 5.1 5.1 5.2 5.2 5.6 5.9 6.4 6.8 6.7 6.8 7.4 7.7 8.0 8.0 7.5 8.0 8.8 8.3 8.2 7.6 7.3 7.1 8.0 8.7 8.7 9.1 9.2 10.0 10.6 10.5 11.3 11.8
12.0 12.1 11.9 11.7 11.7 12.1 11.7 11.9 12.0 11.5 11.1 10.7 10.4 10.0 9.9 9.8 10.0 9.3 9.6 9.5 9.6 10.0 10.1 9.6 9.2 9.1 9.4 9.4 9.4 9.5 9.3 8.9 8.5 8.3 8.0 7.8 7.4 7.2 6.9 6.9 6.8 6.4 6.1 5.8 5.5 5.5 5.5 5.5 5.5 5.7 5.6 5.4 5.3 5.1 5.0 5.0 5.3 5.5 5.8 6.1 6.2 6.6 6.7 6.9 7.2 6.9 6.9 7.3 7.6 8.0 8.4 8.3 7.7 7.6 7.8 8.5 8.7 8.8 9.9 9.4 9.6 10.1 10.9 11.2 11.2
11.5 12.0 12.1 11.8 11.9 12.0 12.6 12.8 12.6 12.5 12.0 11.5 10.8 10.5 10.6 10.3 9.6 9.5 10.0 9.9 10.3 10.4 10.4 10.1 9.4 9.0 8.9 9.2 9.5 9.5 9.3 8.9 8.3 7.9 7.5 7.1 6.8 6.5 6.4 6.4 6.5 6.1 5.7 5.2 5.0 4.9 4.9 5.0 5.2 5.3 5.5 5.6 5.6 5.4 5.3 5.3 5.5 5.4 5.6 5.7 5.7 5.5 5.9 6.3 7.1 7.2 7.0 7.7 7.7 7.5 7.5 7.5 7.5 7.1 7.3 7.9 8.0 8.6 9.7 9.8 10.4 10.5 10.3 10.6 11.3
11.2 11.5 11.9 11.9 11.8 11.6 11.4 11.9 12.0 11.9 11.6 11.5 11.9 11.5 10.5 9.7 9.4 9.6 9.9 10.1 10.4 10.3 9.8 9.5 9.4 9.1 9.1 8.9 8.9 8.6 8.5 8.1 7.7 7.4 6.9 6.5 6.3 6.1 5.8 5.7 5.6 5.3 5.1 5.0 4.7 4.8 4.6 4.7 4.8 5.0 5.2 5.4 5.4 5.3 5.5 5.5 5.4 5.6 5.8 5.6 5.4 5.8 6.1 6.3 6.4 6.6 7.3 7.6 7.4 7.4 7.5 7.5 7.1 7.0 7.1 7.6 8.1 8.6 9.2 9.2 9.6 10.2 10.7 11.0 11.1
11.1 11.4 11.7 12.0 12.1 11.7 11.7 12.1 12.0 11.7 11.8 11.9 11.6 11.3 10.7 10.1 10.0 10.0 10.4 10.6 10.9 10.8 10.3 9.9 9.3 8.9 8.5 8.5 8.8 8.5 8.1 7.5 7.0 6.6 6.1 5.7 5.6 5.4 5.3 5.1 4.8 4.7 4.5 4.5 4.4 4.6 4.6 4.6 4.6 4.8 5.0 5.1 5.0 5.0 5.0 5.1 5.4 5.8 5.9 5.9 6.0 6.1 6.1 6.6 6.9 6.4 6.6 7.3 7.6 7.8 8.1 7.6 7.4 7.1 6.8 7.1 7.9 8.6 8.4 9.0 9.5 10.3 10.7 11.4 11.5